FENGYUN 1C DEB, 30325

Orbit data source: Space-Track

FENGYUN 1C DEB, 30325 is space debris in SSO originally from a launch on Mon, 10 May 1999 UTC launched from the Taiyaun Space Center, China (TSC). Fengyun 1C debris stems from the Chinese weather satellite Fengyun-1C, which was intentionally destroyed by a Chinese anti-satellite missile in 2007. This event dramatically increased the amount of space debris, with thousands of trackable fragments posing hazards to satellites and human spaceflight. The Fengyun 1C debris cloud has become a focal point in discussions about space sustainability and the need for international regulations to prevent the creation of new debris.

Loading next visibility...
Identifier
30325, 1999-025AAL
Orbit
SSO
Country
Flag of CNCN / PRC
Related business
Manufacturer
Unknown
Mission
Spacecraft
Bus & Motor
Unknown
Mass
Unknown
Launch date (UTC)
1999-05-10 (27 years ago)
Launch vehicle
Unknown
Launch site
Taiyaun Space Center, China (TSC)
Object type
Payload
Rocket body
Debris
Shape & HBR
Unknown shape, 0.1 m
Radar Cross Section
Medium (>0.1 m² and <1 m²)

Expand to show TLE details & history
Last TLE update: 19 hours ago

TLE from 19 hours ago
0 FENGYUN 1C DEB
1 30325U 99025AAL 26207.48940249  .00000165  00000-0  11960-3 0  9997
2 30325  98.7189 224.7470 0015747 339.9254  20.1295 14.09176668  1842
Epoch: 2026-07-26T11:44Z
TLE epoch observation values (Epoch: 2026-07-26T11:44:44.375Z)
Latitude
-0.00004°
Longitude
104.37551°
Altitude
854.385 km
Speed
7.431 km/s
True Right ascension
14h 58m 59s
True Declination
0° 00' 00"
Sunlit
Object was in daylight at epoch
Visualization orbit readout
Latitude
Unknown
Longitude
Unknown
Altitude
Unknown
Speed
Unknown
Apparent Right ascension
Unknown
Apparent Declination
Unknown
Sunlit
N/A
Visualization observer readout
Local Sidereal Time
20:05:56
Azimuth
Unknown
Elevation
Unknown
Doppler factor
Unknown
Orbital elements
Apogee altitude
870.761 km
Perigee altitude
847.967 km
Semi-major axis
7,237.501 km
Eccentricity
0.00157
Inclination
98.7189°
RAAN
224.747°
Arg. of periapsis
339.9254°
True anomaly
20.19171°
Mean anomaly
20.1295°
Eccentric anomaly
20.1606°
Mean motion
3.52501 °/min
Orbital period
102.13 mins
BSTAR
0.0001196
Loading maneuver chart data...
Computing Atmospheric mass density...

Documentation

Showing up to 5 results
|